This demonstration page uses our WeatherBlox Daily Observations layout. Learn more.

Left ArrowRight Arrow

Hourly Observations for November 18, 2016

Temp ( °F °C ) Dew Point ( °F °C ) Humidity (%) Winds ( mph kmh ) Pressure ( in mb ) Visibility ( mi km ) Precip ( " mm )
12:59 am 00:59 Clear with Patchy Fog 44 6.7 41 5 89 89 WSW 3 6 30.16 1021 8 13 0.00 0.00
1:59 am 01:59 Clear 43 6.1 41 5 93 93 Calm 30.16 1021 10 16 0.00 0.00
2:59 am 02:59 Clear 42 5.6 41 5 96 96 Calm 30.16 1021 10 16 0.00 0.00
3:59 am 03:59 Clear with Patchy Fog 44 6.7 43 6.1 96 96 W 3 6 30.15 1021 7 11 0.00 0.00
4:59 am 04:59 Clear with Mist and Fog 43 6.1 41 5 93 93 Calm 30.16 1021 6 10 0.00 0.00
5:59 am 05:59 Clear 43 6.1 41 5 93 93 NW 5 7 30.16 1022 10 16 0.00 0.00
6:59 am 06:59 Sunny with Patchy Fog 43 6.1 41 5 93 93 Calm 30.19 1022 7 11 0.00 0.00
7:59 am 07:59 Sunny with Patchy Fog 48 8.9 46 7.8 93 93 Calm 30.20 1023 7 11 0.00 0.00
8:59 am 08:59 Sunny 55 12.8 47 8.3 74 74 NNW 3 6 30.21 1023 7 11 0.00 0.00
9:59 am 09:59 Sunny 59 15 46 7.8 62 62 N 5 7 30.22 1023 9 14 0.00 0.00
10:59 am 10:59 Sunny 62 16.7 44 6.7 52 52 NW 8 13 30.21 1023 10 16 0.00 0.00
11:59 am 11:59 Sunny 66 18.9 42 5.6 42 42 NNW 8 13 30.18 1022 10 16 0.00 0.00
12:59 pm 12:59 Sunny 64 17.8 43 6.1 46 46 W 7 11 30.15 1021 10 16 0.00 0.00
1:59 pm 13:59 Sunny 65 18.3 41 5 42 42 W 7 11 30.13 1020 10 16 0.00 0.00
2:59 pm 14:59 Sunny 68 20 41 5 38 38 W 3 6 30.11 1020 10 16 0.00 0.00
3:59 pm 15:59 Sunny 67 19.4 42 5.6 41 41 Calm 30.11 1020 10 16 0.00 0.00
4:59 pm 16:59 Clear 57 13.9 46 7.8 67 67 Calm 30.12 1020 10 16 0.00 0.00
5:59 pm 17:59 Clear 51 10.6 46 7.8 83 83 Calm 30.13 1020 10 16 0.00 0.00
6:59 pm 18:59 Clear 51 10.6 45 7.2 80 80 Calm 30.12 1020 10 16 0.00 0.00
7:59 pm 19:59 Clear 51 10.6 46 7.8 83 83 Calm 30.12 1020 9 14 0.00 0.00
8:59 pm 20:59 Clear 49 9.4 45 7.2 86 86 SW 5 7 30.11 1020 8 13 0.00 0.00
9:59 pm 21:59 Clear 51 10.6 44 6.7 77 77 SW 6 9 30.11 1020 8 13 0.00 0.00
10:59 pm 22:59 Clear 52 11.1 46 7.8 80 80 WSW 3 6 30.11 1020 8 13 0.00 0.00
11:59 pm 23:59 Clear 47 8.3 45 7.2 93 93 WSW 5 7 30.09 1019 7 11 0.00 0.00

Powered by AerisWeather